QPF
0.01 0.01 0.02 0.02 0.01 0.02 0.02 0.02 0.02 0.03 0.03 0.02 0.02 0.01 0.01 0.00 0.01 0.01 0.01 0.01 0.01 0.01 0.02 0.02 0.04 0.05 0.05 0.05 0.07 0.04 0.03 0.03 0.05 0.07 0.07 0.07 0.07 0.06 0.04 0.04 0.05 0.03 0.03
0.00 0.01 0.02 0.02 0.01 0.02 0.02 0.02 0.02 0.02 0.02 0.01 0.02 0.01 0.01 0.00 0.01 0.01 0.01 0.01 0.01 0.01 0.02 0.05 0.06 0.06 0.05 0.05 0.05 0.03 0.03 0.05 0.07 0.10 0.10 0.08 0.07 0.06 0.04 0.04 0.06 0.04 0.05
0.00 0.00 0.01 0.02 0.01 0.02 0.02 0.02 0.02 0.02 0.01 0.01 0.01 0.01 0.01 0.00 0.00 0.01 0.01 0.01 0.02 0.02 0.03 0.05 0.06 0.05 0.04 0.06 0.04 0.04 0.04 0.07 0.10 0.10 0.10 0.07 0.04 0.05 0.05 0.03 0.04 0.05 0.05
0.00 0.00 0.00 0.01 0.01 0.01 0.02 0.02 0.02 0.02 0.01 0.01 0.01 0.01 0.00 0.01 0.00 0.01 0.01 0.01 0.01 0.03 0.05 0.05 0.05 0.05 0.06 0.06 0.06 0.06 0.06 0.08 0.08 0.06 0.07 0.05 0.04 0.06 0.07 0.05 0.04 0.04 0.04
0.00 0.00 0.01 0.01 0.01 0.01 0.02 0.02 0.02 0.02 0.01 0.01 0.01 0.01 0.01 0.01 0.01 0.01 0.01 0.01 0.02 0.03 0.03 0.04 0.04 0.06 0.04 0.04 0.04 0.06 0.08 0.08 0.05 0.04 0.04 0.06 0.06 0.07 0.06 0.05 0.05 0.04 0.03
0.00 0.01 0.02 0.02 0.01 0.01 0.02 0.01 0.01 0.01 0.01 0.01 0.02 0.02 0.02 0.02 0.02 0.02 0.02 0.03 0.03 0.03 0.03 0.04 0.04 0.05 0.04 0.03 0.03 0.04 0.06 0.04 0.04 0.03 0.03 0.06 0.06 0.06 0.06 0.04 0.03 0.03 0.03
0.03 0.04 0.05 0.04 0.03 0.03 0.02 0.02 0.01 0.01 0.01 0.01 0.02 0.02 0.02 0.03 0.03 0.03 0.03 0.05 0.03 0.02 0.03 0.04 0.04 0.03 0.05 0.05 0.05 0.04 0.05 0.03 0.02 0.03 0.03 0.05 0.05 0.05 0.06 0.04 0.03 0.03 0.03
0.04 0.07 0.08 0.08 0.06 0.04 0.03 0.03 0.02 0.02 0.02 0.02 0.02 0.02 0.02 0.03 0.03 0.03 0.04 0.04 0.02 0.02 0.03 0.04 0.04 0.04 0.07 0.08 0.06 0.05 0.05 0.02 0.01 0.01 0.02 0.03 0.03 0.04 0.04 0.04 0.03 0.03 0.03
0.03 0.05 0.07 0.07 0.07 0.06 0.05 0.04 0.03 0.03 0.03 0.03 0.03 0.03 0.03 0.02 0.02 0.02 0.03 0.03 0.02 0.02 0.03 0.05 0.05 0.06 0.07 0.08 0.08 0.07 0.05 0.02 0.01 0.01 0.02 0.03 0.02 0.03 0.03 0.05 0.05 0.04 0.03
0.06 0.06 0.08 0.09 0.10 0.10 0.09 0.07 0.05 0.03 0.03 0.03 0.04 0.05 0.05 0.04 0.02 0.02 0.03 0.03 0.02 0.02 0.03 0.04 0.04 0.04 0.05 0.07 0.08 0.08 0.06 0.04 0.01 0.00 0.02 0.02 0.02 0.02 0.03 0.04 0.05 0.04 0.02
0.07 0.10 0.10 0.15 0.23 0.17 0.13 0.09 0.07 0.06 0.05 0.05 0.07 0.06 0.07 0.07 0.04 0.03 0.02 0.03 0.02 0.02 0.02 0.02 0.03 0.04 0.04 0.05 0.07 0.08 0.06 0.04 0.02 0.01 0.03 0.02 0.03 0.03 0.03 0.03 0.03 0.04 0.03
0.05 0.09 0.12 0.15 0.23 0.18 0.12 0.10 0.10 0.10 0.08 0.07 0.08 0.07 0.07 0.07 0.06 0.03 0.02 0.03 0.02 0.02 0.02 0.02 0.03 0.02 0.02 0.03 0.03 0.04 0.05 0.03 0.03 0.02 0.02 0.03 0.04 0.04 0.04 0.03 0.03 0.03 0.02
0.07 0.08 0.10 0.12 0.15 0.13 0.10 0.07 0.07 0.07 0.08 0.07 0.07 0.06 0.06 0.04 0.03 0.03 0.04 0.06 0.05 0.03 0.03 0.02 0.01 0.01 0.01 0.04 0.05 0.02 0.05 0.04 0.04 0.04 0.03 0.03 0.04 0.05 0.04 0.04 0.03 0.02 0.02
0.09 0.09 0.10 0.11 0.12 0.12 0.09 0.05 0.05 0.05 0.04 0.05 0.05 0.04 0.04 0.04 0.03 0.04 0.05 0.06 0.04 0.05 0.04 0.02 0.02 0.01 0.01 0.01 0.02 0.04 0.04 0.05 0.05 0.06 0.06 0.03 0.04 0.06 0.06 0.05 0.04 0.04 0.02
0.11 0.14 0.13 0.12 0.13 0.11 0.08 0.05 0.04 0.04 0.04 0.05 0.04 0.03 0.03 0.03 0.03 0.03 0.04 0.04 0.03 0.02 0.02 0.02 0.01 0.01 0.03 0.02 0.02 0.03 0.03 0.03 0.03 0.04 0.05 0.06 0.05 0.05 0.06 0.05 0.06 0.05 0.05
0.12 0.18 0.14 0.13 0.12 0.11 0.07 0.05 0.05 0.04 0.05 0.05 0.04 0.04 0.04 0.04 0.03 0.03 0.03 0.04 0.03 0.02 0.03 0.02 0.01 0.02 0.03 0.05 0.04 0.05 0.06 0.05 0.04 0.03 0.04 0.05 0.05 0.04 0.05 0.05 0.06 0.05 0.06
0.18 0.22 0.17 0.14 0.12 0.11 0.10 0.07 0.06 0.07 0.06 0.05 0.04 0.06 0.05 0.04 0.04 0.04 0.04 0.04 0.04 0.04 0.04 0.02 0.02 0.02 0.03 0.04 0.07 0.07 0.09 0.07 0.05 0.03 0.03 0.05 0.05 0.04 0.05 0.05 0.05 0.05 0.06
0.17 0.26 0.18 0.17 0.14 0.08 0.09 0.09 0.07 0.07 0.06 0.06 0.07 0.07 0.06 0.05 0.05 0.05 0.05 0.03 0.03 0.03 0.03 0.03 0.03 0.03 0.04 0.05 0.07 0.09 0.07 0.07 0.05 0.05 0.04 0.05 0.05 0.04 0.06 0.04 0.04 0.04 0.05
0.17 0.22 0.15 0.13 0.12 0.09 0.10 0.08 0.08 0.07 0.06 0.05 0.06 0.08 0.07 0.06 0.05 0.06 0.05 0.04 0.02 0.02 0.03 0.02 0.03 0.03 0.04 0.06 0.07 0.08 0.05 0.05 0.05 0.04 0.05 0.03 0.03 0.04 0.05 0.04 0.03 0.03 0.04
0.15 0.15 0.11 0.11 0.11 0.10 0.09 0.09 0.10 0.08 0.06 0.06 0.06 0.08 0.07 0.06 0.05 0.06 0.06 0.04 0.02 0.02 0.03 0.03 0.04 0.03 0.04 0.07 0.05 0.05 0.04 0.03 0.04 0.04 0.04 0.03 0.03 0.02 0.02 0.02 0.03 0.02 0.02
0.10 0.10 0.09 0.09 0.10 0.09 0.07 0.06 0.06 0.08 0.08 0.07 0.06 0.05 0.05 0.04 0.04 0.06 0.06 0.06 0.04 0.03 0.04 0.03 0.03 0.04 0.04 0.06 0.07 0.07 0.06 0.03 0.03 0.04 0.04 0.03 0.03 0.02 0.02 0.03 0.04 0.04 0.03
0.08 0.08 0.09 0.09 0.07 0.06 0.07 0.09 0.11 0.14 0.12 0.08 0.06 0.05 0.05 0.04 0.04 0.04 0.06 0.07 0.05 0.05 0.05 0.03 0.03 0.04 0.04 0.04 0.05 0.06 0.06 0.05 0.03 0.02 0.03 0.03 0.03 0.03 0.03 0.02 0.03 0.04 0.04
0.05 0.06 0.07 0.08 0.08 0.08 0.09 0.10 0.09 0.10 0.08 0.06 0.05 0.05 0.05 0.05 0.05 0.04 0.04 0.06 0.05 0.05 0.05 0.04 0.03 0.04 0.04 0.03 0.04 0.04 0.04 0.04 0.04 0.02 0.01 0.01 0.02 0.03 0.02 0.02 0.01 0.01 0.02
0.06 0.06 0.07 0.08 0.09 0.11 0.12 0.11 0.09 0.07 0.07 0.07 0.06 0.06 0.05 0.04 0.04 0.04 0.04 0.05 0.05 0.04 0.04 0.03 0.02 0.03 0.04 0.03 0.03 0.02 0.02 0.02 0.03 0.03 0.01 0.01 0.01 0.01 0.01 0.01 0.01 0.01 0.01
0.08 0.07 0.07 0.08 0.10 0.13 0.15 0.13 0.10 0.07 0.08 0.09 0.08 0.08 0.08 0.06 0.05 0.05 0.05 0.05 0.05 0.03 0.02 0.02 0.02 0.03 0.03 0.03 0.03 0.02 0.02 0.02 0.02 0.03 0.03 0.02 0.01 0.00 0.01 0.01 0.01 0.00 0.00
0.10 0.08 0.07 0.08 0.09 0.09 0.10 0.08 0.06 0.05 0.06 0.07 0.07 0.06 0.06 0.06 0.05 0.04 0.05 0.05 0.04 0.03 0.02 0.02 0.03 0.03 0.03 0.04 0.03 0.02 0.02 0.03 0.02 0.02 0.02 0.02 0.02 0.01 0.00 0.00 0.00 0.00 0.00
MSLP
1010.72 1010.87 1011.18 1011.59 1012.04 1012.47 1012.81 1013.06 1013.22 1013.34 1013.48 1013.68 1013.96 1014.31 1014.70 1015.08 1015.40 1015.62 1015.72 1015.74 1015.69 1015.63 1015.59 1015.61 1015.69 1015.82 1015.97 1016.12 1016.25 1016.35 1016.43 1016.50 1016.59 1016.71 1016.86 1017.04 1017.23 1017.42 1017.60 1017.75 1017.88 1018.01 1018.13
1010.45 1010.72 1011.14 1011.66 1012.21 1012.69 1013.07 1013.32 1013.47 1013.56 1013.67 1013.85 1014.12 1014.48 1014.89 1015.29 1015.63 1015.85 1015.95 1015.94 1015.87 1015.78 1015.72 1015.73 1015.82 1015.97 1016.15 1016.32 1016.46 1016.57 1016.65 1016.72 1016.80 1016.93 1017.09 1017.29 1017.52 1017.74 1017.95 1018.13 1018.28 1018.41 1018.54
1010.17 1010.55 1011.09 1011.72 1012.36 1012.92 1013.35 1013.63 1013.78 1013.87 1013.96 1014.11 1014.36 1014.69 1015.09 1015.47 1015.78 1015.99 1016.07 1016.04 1015.95 1015.85 1015.80 1015.83 1015.94 1016.11 1016.31 1016.50 1016.65 1016.76 1016.83 1016.90 1016.98 1017.11 1017.29 1017.52 1017.78 1018.04 1018.27 1018.47 1018.63 1018.77 1018.90
1009.94 1010.41 1011.04 1011.77 1012.50 1013.15 1013.64 1013.96 1014.14 1014.23 1014.30 1014.43 1014.64 1014.93 1015.28 1015.61 1015.89 1016.06 1016.12 1016.08 1016.00 1015.93 1015.91 1015.97 1016.11 1016.31 1016.53 1016.73 1016.87 1016.96 1017.02 1017.07 1017.16 1017.29 1017.50 1017.75 1018.04 1018.32 1018.58 1018.79 1018.96 1019.10 1019.22
1009.78 1010.31 1011.02 1011.82 1012.63 1013.34 1013.90 1014.27 1014.48 1014.59 1014.66 1014.76 1014.93 1015.17 1015.46 1015.75 1015.98 1016.12 1016.17 1016.15 1016.10 1016.07 1016.10 1016.22 1016.40 1016.63 1016.85 1017.03 1017.16 1017.22 1017.25 1017.29 1017.36 1017.51 1017.73 1018.01 1018.33 1018.63 1018.90 1019.12 1019.28 1019.41 1019.52
1009.72 1010.29 1011.03 1011.87 1012.72 1013.48 1014.09 1014.51 1014.76 1014.89 1014.97 1015.06 1015.20 1015.40 1015.64 1015.88 1016.08 1016.21 1016.27 1016.28 1016.29 1016.33 1016.43 1016.60 1016.82 1017.07 1017.28 1017.44 1017.53 1017.55 1017.54 1017.55 1017.62 1017.77 1018.01 1018.32 1018.65 1018.98 1019.26 1019.47 1019.62 1019.72 1019.82
1009.77 1010.33 1011.07 1011.92 1012.77 1013.56 1014.19 1014.64 1014.93 1015.09 1015.19 1015.28 1015.41 1015.59 1015.80 1016.02 1016.21 1016.35 1016.44 1016.51 1016.58 1016.69 1016.87 1017.09 1017.35 1017.60 1017.79 1017.91 1017.94 1017.91 1017.86 1017.84 1017.90 1018.06 1018.32 1018.65 1019.02 1019.36 1019.64 1019.84 1019.97 1020.05 1020.11
1009.93 1010.46 1011.16 1011.96 1012.79 1013.55 1014.19 1014.66 1014.97 1015.16 1015.29 1015.41 1015.55 1015.74 1015.95 1016.16 1016.36 1016.52 1016.66 1016.79 1016.93 1017.12 1017.35 1017.62 1017.90 1018.14 1018.30 1018.37 1018.34 1018.25 1018.16 1018.11 1018.16 1018.34 1018.63 1018.99 1019.39 1019.75 1020.04 1020.23 1020.34 1020.39 1020.42
1010.17 1010.65 1011.29 1012.02 1012.78 1013.50 1014.10 1014.56 1014.89 1015.12 1015.28 1015.44 1015.62 1015.83 1016.06 1016.30 1016.52 1016.72 1016.90 1017.07 1017.27 1017.51 1017.78 1018.07 1018.35 1018.57 1018.70 1018.71 1018.64 1018.51 1018.38 1018.32 1018.37 1018.57 1018.89 1019.30 1019.72 1020.12 1020.42 1020.62 1020.71 1020.73 1020.73
1010.47 1010.89 1011.45 1012.10 1012.78 1013.42 1013.97 1014.40 1014.74 1014.99 1015.20 1015.40 1015.63 1015.88 1016.15 1016.42 1016.67 1016.90 1017.10 1017.31 1017.53 1017.79 1018.07 1018.36 1018.63 1018.82 1018.91 1018.89 1018.78 1018.63 1018.49 1018.43 1018.50 1018.72 1019.08 1019.53 1020.00 1020.43 1020.76 1020.97 1021.06 1021.07 1021.05
1010.78 1011.16 1011.66 1012.22 1012.80 1013.35 1013.83 1014.23 1014.55 1014.82 1015.06 1015.32 1015.60 1015.90 1016.21 1016.51 1016.79 1017.03 1017.24 1017.45 1017.67 1017.92 1018.18 1018.45 1018.69 1018.86 1018.93 1018.89 1018.77 1018.62 1018.49 1018.45 1018.54 1018.80 1019.19 1019.68 1020.19 1020.66 1021.03 1021.27 1021.38 1021.40 1021.37
1011.06 1011.43 1011.88 1012.36 1012.86 1013.33 1013.74 1014.08 1014.38 1014.65 1014.93 1015.22 1015.55 1015.90 1016.25 1016.58 1016.87 1017.11 1017.31 1017.50 1017.69 1017.90 1018.13 1018.36 1018.56 1018.71 1018.78 1018.75 1018.65 1018.53 1018.43 1018.42 1018.55 1018.83 1019.25 1019.77 1020.31 1020.82 1021.22 1021.50 1021.64 1021.68 1021.66
1011.29 1011.67 1012.09 1012.53 1012.95 1013.34 1013.69 1013.98 1014.25 1014.52 1014.81 1015.13 1015.50 1015.88 1016.26 1016.61 1016.91 1017.15 1017.33 1017.48 1017.62 1017.78 1017.96 1018.15 1018.34 1018.48 1018.55 1018.56 1018.51 1018.43 1018.38 1018.41 1018.57 1018.87 1019.30 1019.82 1020.38 1020.90 1021.34 1021.65 1021.84 1021.91 1021.92
1011.43 1011.85 1012.27 1012.68 1013.06 1013.39 1013.68 1013.93 1014.16 1014.42 1014.71 1015.05 1015.44 1015.85 1016.25 1016.62 1016.93 1017.16 1017.32 1017.44 1017.54 1017.65 1017.79 1017.94 1018.11 1018.26 1018.36 1018.42 1018.43 1018.41 1018.42 1018.49 1018.67 1018.97 1019.38 1019.88 1020.42 1020.93 1021.38 1021.72 1021.95 1022.07 1022.12
1011.48 1011.95 1012.39 1012.79 1013.14 1013.44 1013.68 1013.90 1014.10 1014.34 1014.62 1014.97 1015.36 1015.79 1016.22 1016.60 1016.92 1017.16 1017.31 1017.42 1017.50 1017.58 1017.68 1017.82 1017.98 1018.15 1018.29 1018.41 1018.48 1018.53 1018.59 1018.69 1018.87 1019.15 1019.51 1019.96 1020.44 1020.92 1021.36 1021.71 1021.96 1022.13 1022.23
1011.43 1011.95 1012.42 1012.83 1013.17 1013.45 1013.67 1013.86 1014.04 1014.26 1014.53 1014.86 1015.26 1015.70 1016.14 1016.54 1016.89 1017.15 1017.33 1017.45 1017.53 1017.61 1017.71 1017.84 1018.01 1018.20 1018.38 1018.55 1018.68 1018.79 1018.90 1019.01 1019.18 1019.40 1019.70 1020.06 1020.46 1020.87 1021.26 1021.60 1021.87 1022.07 1022.22
1011.31 1011.85 1012.34 1012.76 1013.11 1013.39 1013.60 1013.79 1013.96 1014.16 1014.42 1014.74 1015.12 1015.56 1016.01 1016.44 1016.82 1017.12 1017.35 1017.51 1017.63 1017.73 1017.85 1017.99 1018.18 1018.38 1018.60 1018.81 1018.99 1019.14 1019.27 1019.39 1019.52 1019.69 1019.90 1020.16 1020.46 1020.77 1021.10 1021.40 1021.67 1021.89 1022.08
1011.12 1011.67 1012.17 1012.60 1012.96 1013.25 1013.48 1013.68 1013.86 1014.05 1014.29 1014.59 1014.96 1015.38 1015.83 1016.28 1016.70 1017.06 1017.35 1017.58 1017.75 1017.90 1018.05 1018.22 1018.42 1018.64 1018.88 1019.11 1019.32 1019.50 1019.64 1019.75 1019.85 1019.95 1020.07 1020.23 1020.41 1020.63 1020.87 1021.12 1021.37 1021.60 1021.82
1010.90 1011.43 1011.91 1012.35 1012.73 1013.05 1013.31 1013.54 1013.73 1013.93 1014.16 1014.44 1014.77 1015.17 1015.61 1016.07 1016.52 1016.94 1017.30 1017.60 1017.84 1018.05 1018.25 1018.44 1018.66 1018.89 1019.13 1019.37 1019.59 1019.78 1019.92 1020.02 1020.09 1020.14 1020.18 1020.24 1020.33 1020.44 1020.60 1020.78 1021.00 1021.23 1021.46
1010.66 1011.15 1011.61 1012.05 1012.44 1012.80 1013.12 1013.38 1013.62 1013.83 1014.05 1014.31 1014.61 1014.96 1015.38 1015.83 1016.30 1016.75 1017.17 1017.54 1017.86 1018.13 1018.37 1018.59 1018.81 1019.04 1019.28 1019.52 1019.74 1019.93 1020.07 1020.17 1020.22 1020.23 1020.22 1020.20 1020.20 1020.24 1020.31 1020.43 1020.60 1020.81 1021.05
1010.42 1010.86 1011.29 1011.72 1012.14 1012.54 1012.91 1013.24 1013.52 1013.77 1013.99 1014.22 1014.48 1014.79 1015.15 1015.57 1016.03 1016.50 1016.96 1017.38 1017.76 1018.08 1018.36 1018.61 1018.85 1019.08 1019.31 1019.53 1019.75 1019.94 1020.09 1020.19 1020.24 1020.23 1020.19 1020.13 1020.07 1020.04 1020.04 1020.10 1020.22 1020.39 1020.61
1010.18 1010.57 1010.97 1011.40 1011.84 1012.29 1012.72 1013.12 1013.46 1013.74 1013.97 1014.18 1014.40 1014.65 1014.96 1015.33 1015.76 1016.22 1016.69 1017.14 1017.56 1017.93 1018.24 1018.52 1018.76 1018.99 1019.22 1019.44 1019.65 1019.84 1020.00 1020.12 1020.18 1020.18 1020.14 1020.06 1019.96 1019.88 1019.83 1019.83 1019.89 1020.02 1020.21
1009.95 1010.30 1010.67 1011.09 1011.55 1012.05 1012.54 1013.00 1013.40 1013.72 1013.98 1014.18 1014.36 1014.56 1014.81 1015.12 1015.49 1015.92 1016.38 1016.85 1017.29 1017.68 1018.03 1018.33 1018.60 1018.84 1019.07 1019.29 1019.50 1019.71 1019.88 1020.02 1020.10 1020.12 1020.09 1020.01 1019.90 1019.79 1019.69 1019.64 1019.65 1019.73 1019.87
1009.73 1010.04 1010.39 1010.80 1011.27 1011.79 1012.33 1012.84 1013.30 1013.67 1013.95 1014.16 1014.32 1014.48 1014.68 1014.93 1015.25 1015.64 1016.07 1016.53 1016.98 1017.40 1017.77 1018.11 1018.40 1018.66 1018.90 1019.14 1019.37 1019.59 1019.78 1019.94 1020.04 1020.09 1020.07 1019.99 1019.88 1019.75 1019.63 1019.53 1019.49 1019.51 1019.60
1009.52 1009.80 1010.12 1010.51 1010.98 1011.50 1012.06 1012.60 1013.10 1013.51 1013.82 1014.05 1014.21 1014.36 1014.52 1014.73 1015.01 1015.37 1015.78 1016.22 1016.67 1017.11 1017.51 1017.87 1018.19 1018.48 1018.76 1019.02 1019.27 1019.51 1019.72 1019.89 1020.01 1020.07 1020.06 1019.99 1019.88 1019.74 1019.59 1019.47 1019.38 1019.35 1019.39
1009.32 1009.58 1009.87 1010.22 1010.64 1011.14 1011.68 1012.23 1012.74 1013.18 1013.52 1013.78 1013.97 1014.13 1014.30 1014.50 1014.76 1015.09 1015.49 1015.92 1016.37 1016.82 1017.24 1017.63 1017.99 1018.33 1018.63 1018.92 1019.20 1019.45 1019.68 1019.86 1019.98 1020.04 1020.04 1019.97 1019.86 1019.71 1019.55 1019.40 1019.29 1019.22 1019.21
Thickness
5800 5796 5785 5783 5781 5780 5780 5779 5778 5776 5774 5772 5769 5768 5766 5765 5763 5762 5761 5760 5759 5758 5757 5756 5756 5754 5753 5752 5751 5750 5749 5747 5746 5745 5744 5743 5742 5741 5740 5740 5740 5740 5736
5804 5795 5784 5782 5780 5779 5778 5777 5775 5773 5771 5769 5767 5765 5764 5762 5761 5760 5759 5758 5757 5756 5755 5754 5754 5752 5751 5750 5749 5747 5746 5745 5744 5743 5742 5740 5739 5738 5738 5738 5738 5737 5734
5803 5793 5784 5781 5779 5777 5776 5774 5773 5771 5769 5767 5765 5763 5762 5760 5759 5758 5757 5756 5755 5754 5753 5752 5751 5750 5749 5747 5746 5745 5743 5742 5742 5741 5741 5742 5738 5736 5735 5735 5734 5733 5732
5802 5793 5785 5779 5777 5775 5773 5771 5770 5768 5767 5765 5763 5761 5760 5758 5758 5756 5755 5754 5753 5752 5751 5750 5749 5747 5746 5745 5743 5742 5741 5739 5740 5741 5743 5742 5738 5733 5733 5732 5731 5730 5730
5799 5792 5783 5777 5774 5772 5770 5768 5767 5766 5764 5763 5761 5759 5758 5757 5756 5755 5753 5752 5751 5750 5749 5748 5746 5745 5743 5742 5741 5740 5738 5737 5739 5742 5742 5739 5735 5731 5730 5730 5729 5728 5728
5796 5790 5781 5774 5771 5769 5767 5765 5764 5763 5762 5760 5759 5757 5756 5755 5754 5753 5752 5750 5749 5748 5747 5745 5744 5742 5741 5739 5738 5737 5736 5736 5739 5741 5739 5737 5733 5729 5728 5728 5727 5726 5726
5795 5789 5779 5772 5769 5766 5764 5763 5761 5760 5759 5758 5756 5755 5754 5753 5752 5751 5749 5748 5747 5746 5744 5743 5741 5740 5738 5737 5736 5735 5734 5735 5740 5739 5736 5734 5730 5727 5726 5726 5725 5724 5724
5793 5787 5776 5769 5766 5763 5761 5759 5758 5757 5756 5755 5754 5753 5752 5751 5750 5749 5747 5746 5745 5744 5742 5740 5739 5737 5736 5735 5734 5733 5733 5734 5737 5738 5735 5732 5726 5725 5724 5724 5723 5723 5722
5791 5785 5775 5768 5764 5760 5758 5757 5756 5755 5754 5753 5752 5751 5750 5749 5748 5747 5745 5744 5743 5742 5740 5738 5737 5735 5734 5733 5732 5731 5731 5734 5739 5736 5734 5729 5724 5723 5722 5721 5721 5721 5720
5786 5782 5775 5770 5765 5761 5757 5754 5753 5752 5751 5750 5749 5749 5748 5747 5746 5745 5744 5742 5741 5740 5738 5736 5735 5733 5732 5731 5730 5730 5730 5732 5738 5736 5733 5727 5722 5721 5720 5720 5719 5719 5719
5778 5777 5774 5770 5765 5761 5758 5753 5751 5749 5748 5748 5747 5746 5746 5747 5746 5744 5743 5741 5739 5738 5736 5735 5733 5732 5731 5730 5729 5729 5730 5735 5736 5735 5730 5724 5721 5720 5719 5718 5717 5717 5717
5771 5771 5770 5768 5763 5761 5758 5754 5751 5750 5747 5748 5747 5746 5746 5746 5745 5745 5739 5739 5738 5736 5735 5733 5732 5732 5733 5734 5731 5729 5733 5734 5734 5732 5727 5721 5719 5718 5717 5716 5716 5715 5715
5771 5767 5765 5763 5760 5759 5756 5753 5751 5750 5747 5746 5746 5745 5744 5745 5744 5743 5741 5738 5737 5736 5737 5733 5733 5737 5737 5736 5735 5734 5733 5735 5733 5732 5725 5720 5718 5717 5716 5715 5715 5714 5713
5769 5764 5762 5760 5757 5754 5753 5752 5750 5749 5747 5746 5743 5744 5743 5744 5744 5743 5741 5740 5739 5739 5737 5738 5736 5736 5735 5734 5734 5733 5732 5732 5732 5730 5723 5719 5717 5716 5715 5715 5714 5713 5712
5765 5761 5759 5756 5753 5750 5749 5749 5749 5748 5747 5745 5743 5742 5743 5744 5744 5742 5741 5739 5741 5739 5737 5736 5736 5733 5733 5732 5733 5732 5731 5730 5730 5729 5723 5718 5716 5715 5714 5714 5713 5712 5711
5762 5758 5755 5752 5749 5747 5746 5746 5745 5746 5744 5744 5743 5742 5741 5742 5742 5741 5740 5738 5739 5738 5738 5736 5736 5733 5733 5733 5732 5731 5730 5730 5727 5726 5725 5719 5716 5715 5714 5713 5712 5711 5710
5760 5757 5752 5749 5747 5745 5744 5744 5744 5743 5743 5743 5742 5740 5739 5740 5739 5739 5740 5738 5738 5737 5734 5734 5734 5734 5733 5732 5731 5730 5729 5728 5727 5726 5725 5723 5720 5716 5714 5713 5712 5711 5710
5760 5754 5751 5749 5745 5743 5742 5741 5742 5742 5741 5741 5740 5739 5738 5738 5737 5737 5739 5739 5736 5736 5735 5734 5736 5734 5734 5733 5730 5730 5729 5727 5726 5725 5725 5722 5722 5720 5716 5713 5712 5711 5710
5759 5753 5749 5747 5744 5742 5740 5740 5740 5740 5739 5739 5739 5738 5737 5737 5736 5737 5737 5737 5735 5736 5735 5736 5735 5735 5733 5731 5731 5729 5730 5730 5727 5727 5725 5724 5722 5720 5719 5715 5713 5712 5710
5758 5753 5748 5745 5743 5741 5739 5738 5738 5737 5737 5738 5738 5737 5736 5736 5736 5736 5736 5735 5736 5736 5735 5734 5733 5732 5733 5731 5733 5732 5731 5731 5730 5729 5728 5727 5724 5722 5721 5719 5716 5714 5712
5755 5750 5746 5743 5742 5740 5739 5737 5736 5735 5736 5737 5737 5736 5735 5735 5735 5735 5737 5734 5734 5735 5734 5734 5733 5731 5731 5732 5730 5728 5730 5732 5732 5730 5730 5729 5727 5725 5723 5720 5719 5718 5716
5755 5750 5746 5743 5742 5741 5740 5739 5737 5735 5735 5736 5736 5735 5734 5734 5734 5735 5734 5735 5735 5734 5732 5733 5732 5733 5733 5732 5729 5726 5723 5725 5728 5734 5731 5729 5729 5727 5725 5724 5722 5719 5718
5754 5751 5749 5745 5742 5741 5740 5738 5736 5733 5733 5733 5733 5733 5734 5734 5734 5735 5734 5735 5734 5735 5734 5732 5732 5730 5730 5732 5733 5728 5723 5721 5727 5732 5731 5731 5729 5728 5728 5726 5724 5722 5719
5757 5754 5751 5746 5743 5741 5739 5738 5736 5733 5731 5734 5734 5734 5734 5734 5734 5734 5733 5733 5733 5735 5733 5733 5734 5733 5730 5730 5731 5730 5730 5730 5724 5725 5730 5733 5731 5728 5729 5729 5727 5724 5721
5759 5756 5752 5747 5743 5741 5739 5738 5735 5734 5734 5735 5735 5734 5734 5734 5734 5734 5733 5733 5732 5734 5733 5733 5732 5732 5732 5731 5730 5730 5729 5728 5728 5725 5722 5727 5730 5732 5730 5728 5727 5726 5723
5760 5758 5753 5748 5744 5742 5739 5738 5735 5734 5734 5733 5733 5733 5733 5734 5734 5734 5733 5732 5732 5733 5731 5731 5731 5730 5731 5730 5730 5731 5729 5728 5727 5727 5724 5723 5725 5730 5730 5730 5728 5727 5725